User: anonymous   Login
Location: Caltech
(34.1382°N, 118.1253°W)
Time: 01:32:00
(UTC-07:00)
Language:

Iridium 59 - Orbit

View from above orbital plane
View from above orbital plane
View from above satellite
View from above satellite

Ground track
Ground track

The orbit data is extracted from the following two-line orbital elements,

1 25275U 98019D   17113.68680794 -.00000010 +00000-0 -10775-4 0  9996
2 25275 086.3923 310.1580 0001893 085.6314 274.5098 14.34217215998326
Epoch (UTC): 23 April 2017 16:29:00
Eccentricity: 0.0001893
inclination: 86.3923°
perigee height: 776 km
apogee height: 779 km
right ascension of ascending node: 310.1580°
argument of perigee: 85.6314°
revolutions per day: 14.34217215
mean anomaly at epoch: 274.5098°
orbit number at epoch: 99832

The dashed part of the orbit path shows where the satellite is in the earth's shadow,  

DLR